"Sample Date","Sample Time","Sample Value","Units","Flow Rate","Sample Interval","Number Channels","Micron Size 0","Counts/Channel 0","Micron Size 1","Counts/Channel 1","Micron Size 2","Counts/Channel 2","Micron Size 3","Counts/Channel 3","Micron Size 4","Counts/Channel 4","Micron Size 5","Counts/Channel 5","Micron Size 6","Counts/Channel 6","Micron Size 7","Counts/Channel 7","Micron Size 8","Counts/Channel 8","Micron Size 9","Counts/Channel 9","Micron Size 10","Counts/Channel 10","Micron Size 11","Counts/Channel 11","Micron Size 12","Counts/Channel 12","Micron Size 13","Counts/Channel 13","Micron Size 14","Counts/Channel 14","Micron Size 15","Counts/Channel 15","Micron Size 16","Counts/Channel 16","Micron Size 17","Counts/Channel 17","Micron Size 18","Counts/Channel 18","Micron Size 19","Counts/Channel 19","Micron Size 20","Counts/Channel 20","Micron Size 21","Counts/Channel 21","Micron Size 22","Counts/Channel 22","Micron Size 23","Counts/Channel 23","Micron Size 24","Counts/Channel 24","Micron Size 25","Counts/Channel 25","Micron Size 26","Counts/Channel 26","Micron Size 27","Counts/Channel 27","Micron Size 28","Counts/Channel 28","Micron Size 29","Counts/Channel 29","Micron Size 30","Counts/Channel 30","Micron Size 31","Counts/Channel 31"
"03/11/08","07:00:00",388572.000,"cc",28339.066,6.00,6,0.100,251511.000,0.200,123714.000,0.300,9732.000,0.500,2726.000,1.000,888.000,5.000,1.000
"03/11/08","07:00:06",289535.000,"cc",28342.953,6.00,6,0.100,185235.000,0.200,92274.000,0.300,8195.000,0.500,2874.000,1.000,957.000,5.000,0
"03/11/08","07:00:12",485854.000,"cc",28271.082,6.00,6,0.100,329716.000,0.200,139386.000,0.300,13085.000,0.500,2785.000,1.000,882.000,5.000,0
"03/11/08","07:00:18",190971.000,"cc",28312.272,6.00,6,0.100,91894.000,0.200,88304.000,0.300,7046.000,0.500,2824.000,1.000,903.000,5.000,0
"03/11/08","07:00:24",200933.000,"cc",28347.773,6.00,6,0.100,97841.000,0.200,92338.000,0.300,7065.000,0.500,2800.000,1.000,889.000,5.000,0
"03/11/08","07:00:30",323280.000,"cc",28324.891,6.00,6,0.100,238997.000,0.200,74018.000,0.300,6216.000,0.500,3047.000,1.000,1002.000,5.000,0
"03/11/08","07:00:36",197705.000,"cc",28321.393,6.00,6,0.100,95046.000,0.200,91863.000,0.300,6962.000,0.500,2917.000,1.000,917.000,5.000,0
"03/11/08","07:00:42",201138.000,"cc",28326.178,6.00,6,0.100,97723.000,0.200,92519.000,0.300,7003.000,0.500,2909.000,1.000,984.000,5.000,0
"03/11/08","07:00:48",169459.000,"cc",28304.662,6.00,6,0.100,86813.000,0.200,73329.000,0.300,5579.000,0.500,2735.000,1.000,1003.000,5.000,0
"03/11/08","07:00:54",258384.000,"cc",28313.756,6.00,6,0.100,186255.000,0.200,63352.000,0.300,5062.000,0.500,2718.000,1.000,997.000,5.000,0
"03/11/08","07:01:00",360247.000,"cc",28332.363,6.00,6,0.100,300579.000,0.200,51851.000,0.300,4286.000,0.500,2601.000,1.000,930.000,5.000,0
"03/11/08","07:01:06",152633.000,"cc",28345.260,6.00,6,0.100,75521.000,0.200,68469.000,0.300,5113.000,0.500,2601.000,1.000,929.000,5.000,0
"03/11/08","07:01:12",323001.000,"cc",28237.752,6.00,6,0.100,251706.000,0.200,62807.000,0.300,4946.000,0.500,2623.000,1.000,919.000,5.000,0
"03/11/08","07:01:18",277496.000,"cc",28342.895,6.00,6,0.100,228886.000,0.200,41524.000,0.300,3750.000,0.500,2523.000,1.000,813.000,5.000,0
"03/11/08","07:01:24",217047.000,"cc",28290.377,6.00,6,0.100,189285.000,0.200,21660.000,0.300,2857.000,0.500,2445.000,1.000,800.000,5.000,0
"03/11/08","07:01:30",331415.000,"cc",28319.018,6.00,6,0.100,276652.000,0.200,47391.000,0.300,4069.000,0.500,2425.000,1.000,878.000,5.000,0
"03/11/08","07:01:36",346634.000,"cc",28364.227,6.00,6,0.100,286760.000,0.200,52032.000,0.300,4435.000,0.500,2547.000,1.000,860.000,5.000,0
"03/11/08","07:01:42",283502.000,"cc",28286.854,6.00,6,0.100,238127.000,0.200,38304.000,0.300,3691.000,0.500,2507.000,1.000,873.000,5.000,0
"03/11/08","07:01:48",283272.000,"cc",28312.660,6.00,6,0.100,247942.000,0.200,28866.000,0.300,3172.000,0.500,2445.000,1.000,847.000,5.000,0
"03/11/08","07:01:54",204454.000,"cc",28327.865,6.00,6,0.100,179461.000,0.200,18865.000,0.300,2729.000,0.500,2521.000,1.000,878.000,5.000,0
"03/11/08","07:02:00",223757.000,"cc",28333.172,6.00,6,0.100,187499.000,0.200,29545.000,0.300,3226.000,0.500,2593.000,1.000,894.000,5.000,0
"03/11/08","07:02:06",171925.000,"cc",28330.762,6.00,6,0.100,150219.000,0.200,15792.000,0.300,2610.000,0.500,2445.000,1.000,859.000,5.000,0
"03/11/08","07:02:12",228969.000,"cc",28268.572,6.00,6,0.100,201179.000,0.200,21520.000,0.300,2886.000,0.500,2468.000,1.000,916.000,5.000,0
"03/11/08","07:02:18",283537.000,"cc",28353.525,6.00,6,0.100,248762.000,0.200,28350.000,0.300,3143.000,0.500,2399.000,1.000,883.000,5.000,0
"03/11/08","07:02:24",306293.000,"cc",28300.484,6.00,6,0.100,269157.000,0.200,30728.000,0.300,3147.000,0.500,2420.000,1.000,841.000,5.000,0
"03/11/08","07:02:30",193977.000,"cc",28354.498,6.00,6,0.100,170216.000,0.200,17670.000,0.300,2739.000,0.500,2543.000,1.000,809.000,5.000,0
"03/11/08","07:02:36",326586.000,"cc",28249.281,6.00,6,0.100,285387.000,0.200,34261.000,0.300,3495.000,0.500,2568.000,1.000,875.000,5.000,0
"03/11/08","07:02:42",254120.000,"cc",28350.262,6.00,6,0.100,222903.000,0.200,24696.000,0.300,3098.000,0.500,2568.000,1.000,855.000,5.000,0
"03/11/08","07:02:48",204427.000,"cc",28356.443,6.00,6,0.100,179285.000,0.200,19027.000,0.300,2767.000,0.500,2451.000,1.000,897.000,5.000,0
"03/11/08","07:02:54",257347.000,"cc",28323.496,6.00,6,0.100,225473.000,0.200,25418.000,0.300,3036.000,0.500,2541.000,1.000,879.000,5.000,0
"03/11/08","07:03:00",255325.000,"cc",28279.850,6.00,6,0.100,223895.000,0.200,24897.000,0.300,3161.000,0.500,2522.000,1.000,850.000,5.000,0
"03/11/08","07:03:06",182022.000,"cc",28288.482,6.00,6,0.100,116173.000,0.200,57746.000,0.300,4565.000,0.500,2644.000,1.000,894.000,5.000,0
"03/11/08","07:03:12",292873.000,"cc",28271.508,6.00,6,0.100,230541.000,0.200,54758.000,0.300,4279.000,0.500,2501.000,1.000,794.000,5.000,0
"03/11/08","07:03:18",276947.000,"cc",28351.367,6.00,6,0.100,156601.000,0.200,109019.000,0.300,7815.000,0.500,2629.000,1.000,883.000,5.000,0
"03/11/08","07:03:24",362265.000,"cc",28357.211,6.00,6,0.100,301400.000,0.200,53354.000,0.300,4224.000,0.500,2490.000,1.000,797.000,5.000,0
"03/11/08","07:03:30",321616.000,"cc",28347.481,6.00,6,0.100,282743.000,0.200,32392.000,0.300,3262.000,0.500,2455.000,1.000,764.000,5.000,0
"03/11/08","07:03:36",327893.000,"cc",28288.477,6.00,6,0.100,276117.000,0.200,44503.000,0.300,3911.000,0.500,2500.000,1.000,862.000,5.000,0
"03/11/08","07:03:42",205490.000,"cc",28264.217,6.00,6,0.100,180248.000,0.200,19233.000,0.300,2768.000,0.500,2391.000,1.000,850.000,5.000,0
"03/11/08","07:03:48",328419.000,"cc",28318.441,6.00,6,0.100,277363.000,0.200,43736.000,0.300,3920.000,0.500,2492.000,1.000,908.000,5.000,0
"03/11/08","07:03:54",267913.000,"cc",28328.867,6.00,6,0.100,197993.000,0.200,61819.000,0.300,4754.000,0.500,2500.000,1.000,847.000,5.000,0
"03/11/08","07:04:00",159465.000,"cc",28307.459,6.00,6,0.100,83039.000,0.200,68074.000,0.300,5023.000,0.500,2545.000,1.000,784.000,5.000,0
"03/11/08","07:04:06",306438.000,"cc",28333.770,6.00,6,0.100,252681.000,0.200,46331.000,0.300,4088.000,0.500,2524.000,1.000,814.000,5.000,0
"03/11/08","07:04:12",309745.000,"cc",28309.090,6.00,6,0.100,260657.000,0.200,42022.000,0.300,3659.000,0.500,2540.000,1.000,867.000,5.000,0
"03/11/08","07:04:18",303934.000,"cc",28285.309,6.00,6,0.100,266409.000,0.200,30987.000,0.300,3258.000,0.500,2447.000,1.000,833.000,5.000,0
"03/11/08","07:04:24",276697.000,"cc",28339.721,6.00,6,0.100,242709.000,0.200,27390.000,0.300,3189.000,0.500,2526.000,1.000,883.000,5.000,0
"03/11/08","07:04:30",340783.000,"cc",28296.258,6.00,6,0.100,297524.000,0.200,36467.000,0.300,3391.000,0.500,2522.000,1.000,878.000,5.000,1.000
"03/11/08","07:04:36",279696.000,"cc",28324.773,6.00,6,0.100,246322.000,0.200,26981.000,0.300,3029.000,0.500,2507.000,1.000,857.000,5.000,0
"03/11/08","07:04:42",269809.000,"cc",28293.398,6.00,6,0.100,227986.000,0.200,35178.000,0.300,3304.000,0.500,2484.000,1.000,857.000,5.000,0
"03/11/08","07:04:48",349461.000,"cc",28340.543,6.00,6,0.100,292777.000,0.200,49494.000,0.300,3922.000,0.500,2420.000,1.000,848.000,5.000,0
"03/11/08","07:04:54",220232.000,"cc",28334.648,6.00,6,0.100,145494.000,0.200,66504.000,0.300,4766.000,0.500,2584.000,1.000,884.000,5.000,0
"03/11/08","07:05:00",311108.000,"cc",28295.799,6.00,6,0.100,273825.000,0.200,30886.000,0.300,3114.000,0.500,2400.000,1.000,883.000,5.000,0
"03/11/08","07:05:06",242642.000,"cc",28319.803,6.00,6,0.100,180812.000,0.200,54259.000,0.300,4194.000,0.500,2492.000,1.000,885.000,5.000,0
"03/11/08","07:05:12",357858.000,"cc",28361.137,6.00,6,0.100,300761.000,0.200,49749.000,0.300,3990.000,0.500,2523.000,1.000,835.000,5.000,0
"03/11/08","07:05:18",332702.000,"cc",28302.078,6.00,6,0.100,279062.000,0.200,46394.000,0.300,3867.000,0.500,2470.000,1.000,909.000,5.000,0
"03/11/08","07:05:24",353481.000,"cc",28260.631,6.00,6,0.100,309077.000,0.200,37537.000,0.300,3454.000,0.500,2571.000,1.000,842.000,5.000,0
"03/11/08","07:05:30",306810.000,"cc",28328.690,6.00,6,0.100,259005.000,0.200,40844.000,0.300,3526.000,0.500,2558.000,1.000,877.000,5.000,0
"03/11/08","07:05:36",381749.000,"cc",28323.471,6.00,6,0.100,333186.000,0.200,41424.000,0.300,3689.000,0.500,2544.000,1.000,906.000,5.000,0
"03/11/08","07:05:42",204166.000,"cc",28290.418,6.00,6,0.100,107721.000,0.200,87164.000,0.300,5754.000,0.500,2653.000,1.000,874.000,5.000,0
"03/11/08","07:05:48",214091.000,"cc",28306.938,6.00,6,0.100,100100.000,0.200,103586.000,0.300,6852.000,0.500,2668.000,1.000,885.000,5.000,0
"03/11/08","07:05:54",167395.000,"cc",28294.863,6.00,6,0.100,87712.000,0.200,71277.000,0.300,4945.000,0.500,2601.000,1.000,860.000,5.000,0
"03/11/08","07:06:00",258811.000,"cc",28345.273,6.00,6,0.100,161259.000,0.200,88202.000,0.300,5793.000,0.500,2686.000,1.000,871.000,5.000,0
"03/11/08","07:06:06",279257.000,"cc",28355.523,6.00,6,0.100,209813.000,0.200,61556.000,0.300,4405.000,0.500,2618.000,1.000,865.000,5.000,0
"03/11/08","07:06:12",200372.000,"cc",28339.793,6.00,6,0.100,106989.000,0.200,84079.000,0.300,5840.000,0.500,2627.000,1.000,837.000,5.000,0
"03/11/08","07:06:18",243418.000,"cc",28290.160,6.00,6,0.100,159437.000,0.200,75288.000,0.300,5283.000,0.500,2570.000,1.000,840.000,5.000,0
"03/11/08","07:06:24",308247.000,"cc",28325.834,6.00,6,0.100,245402.000,0.200,55158.000,0.300,4177.000,0.500,2586.000,1.000,924.000,5.000,0
"03/11/08","07:06:30",361336.000,"cc",28332.117,6.00,6,0.100,302858.000,0.200,50906.000,0.300,4056.000,0.500,2604.000,1.000,912.000,5.000,0
"03/11/08","07:06:36",147966.000,"cc",28312.734,6.00,6,0.100,74059.000,0.200,65571.000,0.300,4861.000,0.500,2575.000,1.000,900.000,5.000,0
"03/11/08","07:06:42",352472.000,"cc",28355.690,6.00,6,0.100,293823.000,0.200,50869.000,0.300,4298.000,0.500,2602.000,1.000,880.000,5.000,0
"03/11/08","07:06:48",319975.000,"cc",28293.270,6.00,6,0.100,255211.000,0.200,56591.000,0.300,4664.000,0.500,2682.000,1.000,827.000,5.000,0
"03/11/08","07:06:54",371095.000,"cc",28266.045,6.00,6,0.100,294256.000,0.200,67451.000,0.300,5732.000,0.500,2713.000,1.000,943.000,5.000,0
"03/11/08","07:07:00",267419.000,"cc",28312.969,6.00,6,0.100,134101.000,0.200,120112.000,0.300,9355.000,0.500,2916.000,1.000,935.000,5.000,0
"03/11/08","07:07:06",222782.000,"cc",28354.303,6.00,6,0.100,144748.000,0.200,69141.000,0.300,5365.000,0.500,2632.000,1.000,896.000,5.000,0
"03/11/08","07:07:12",330098.000,"cc",28353.721,6.00,6,0.100,288631.000,0.200,34430.000,0.300,3530.000,0.500,2599.000,1.000,908.000,5.000,0
"03/11/08","07:07:18",297450.000,"cc",28320.600,6.00,6,0.100,260941.000,0.200,29694.000,0.300,3382.000,0.500,2566.000,1.000,867.000,5.000,0
"03/11/08","07:07:24",298082.000,"cc",28267.533,6.00,6,0.100,249904.000,0.200,40471.000,0.300,4142.000,0.500,2633.000,1.000,932.000,5.000,0
"03/11/08","07:07:30",228566.000,"cc",28293.307,6.00,6,0.100,199970.000,0.200,22136.000,0.300,3110.000,0.500,2488.000,1.000,862.000,5.000,0
"03/11/08","07:07:36",197783.000,"cc",28357.027,6.00,6,0.100,173139.000,0.200,18355.000,0.300,2933.000,0.500,2474.000,1.000,882.000,5.000,0
"03/11/08","07:07:42",302725.000,"cc",28352.897,6.00,6,0.100,264900.000,0.200,30768.000,0.300,3506.000,0.500,2590.000,1.000,961.000,5.000,0
"03/11/08","07:07:48",259212.000,"cc",28299.770,6.00,6,0.100,227066.000,0.200,25408.000,0.300,3167.000,0.500,2618.000,1.000,953.000,5.000,0
"03/11/08","07:07:54",304714.000,"cc",28280.795,6.00,6,0.100,267166.000,0.200,30504.000,0.300,3359.000,0.500,2744.000,1.000,941.000,5.000,0
"03/11/08","07:08:00",309221.000,"cc",28275.680,6.00,6,0.100,270328.000,0.200,31812.000,0.300,3440.000,0.500,2700.000,1.000,941.000,5.000,0
"03/11/08","07:08:06",232174.000,"cc",28323.826,6.00,6,0.100,155113.000,0.200,68216.000,0.300,5079.000,0.500,2786.000,1.000,980.000,5.000,0
"03/11/08","07:08:12",186154.000,"cc",28387.693,6.00,6,0.100,98042.000,0.200,78820.000,0.300,5609.000,0.500,2735.000,1.000,948.000,5.000,0
"03/11/08","07:08:18",378479.000,"cc",28370.014,6.00,6,0.100,315084.000,0.200,55663.000,0.300,4215.000,0.500,2629.000,1.000,888.000,5.000,0
"03/11/08","07:08:24",327884.000,"cc",28228.545,6.00,6,0.100,275886.000,0.200,44672.000,0.300,3874.000,0.500,2559.000,1.000,893.000,5.000,0
"03/11/08","07:08:30",317732.000,"cc",28281.211,6.00,6,0.100,278092.000,0.200,32957.000,0.300,3295.000,0.500,2520.000,1.000,868.000,5.000,0
"03/11/08","07:08:36",287723.000,"cc",28330.209,6.00,6,0.100,230957.000,0.200,49284.000,0.300,4054.000,0.500,2536.000,1.000,892.000,5.000,0
"03/11/08","07:08:42",336540.000,"cc",28290.291,6.00,6,0.100,295980.000,0.200,33903.000,0.300,3261.000,0.500,2474.000,1.000,922.000,5.000,0
"03/11/08","07:08:48",152736.000,"cc",28349.359,6.00,6,0.100,76847.000,0.200,67646.000,0.300,4800.000,0.500,2582.000,1.000,861.000,5.000,0
"03/11/08","07:08:54",262771.000,"cc",28298.580,6.00,6,0.100,197069.000,0.200,57875.000,0.300,4343.000,0.500,2592.000,1.000,892.000,5.000,0
"03/11/08","07:09:00",344838.000,"cc",28295.209,6.00,6,0.100,291467.000,0.200,46204.000,0.300,3717.000,0.500,2593.000,1.000,857.000,5.000,0
"03/11/08","07:09:06",359001.000,"cc",28336.162,6.00,6,0.100,314439.000,0.200,37951.000,0.300,3307.000,0.500,2464.000,1.000,840.000,5.000,0
"03/11/08","07:09:12",260377.000,"cc",28318.008,6.00,6,0.100,229228.000,0.200,24716.000,0.300,2908.000,0.500,2636.000,1.000,889.000,5.000,0
"03/11/08","07:09:18",304233.000,"cc",28306.273,6.00,6,0.100,267913.000,0.200,30011.000,0.300,3166.000,0.500,2333.000,1.000,810.000,5.000,0
"03/11/08","07:09:24",276455.000,"cc",28265.643,6.00,6,0.100,220583.000,0.200,48365.000,0.300,4137.000,0.500,2500.000,1.000,870.000,5.000,0
"03/11/08","07:09:30",344885.000,"cc",28321.871,6.00,6,0.100,301619.000,0.200,36339.000,0.300,3542.000,0.500,2521.000,1.000,864.000,5.000,0
"03/11/08","07:09:36",323919.000,"cc",28328.402,6.00,6,0.100,283823.000,0.200,33308.000,0.300,3334.000,0.500,2565.000,1.000,889.000,5.000,0
"03/11/08","07:09:42",241661.000,"cc",28377.195,6.00,6,0.100,212191.000,0.200,23284.000,0.300,2873.000,0.500,2468.000,1.000,845.000,5.000,0
"03/11/08","07:09:48",307030.000,"cc",28332.359,6.00,6,0.100,268971.000,0.200,31443.000,0.300,3247.000,0.500,2472.000,1.000,897.000,5.000,0
"03/11/08","07:09:54",396798.000,"cc",28228.238,6.00,6,0.100,342666.000,0.200,46534.000,0.300,4089.000,0.500,2633.000,1.000,876.000,5.000,0
"03/11/08","07:10:00",278152.000,"cc",28290.477,6.00,6,0.100,206077.000,0.200,63919.000,0.300,4876.000,0.500,2448.000,1.000,832.000,5.000,0
"03/11/08","07:10:06",319011.000,"cc",28307.264,6.00,6,0.100,251008.000,0.200,59813.000,0.300,4795.000,0.500,2565.000,1.000,830.000,5.000,0
"03/11/08","07:10:12",231104.000,"cc",28363.004,6.00,6,0.100,139263.000,0.200,81777.000,0.300,6572.000,0.500,2618.000,1.000,874.000,5.000,0
"03/11/08","07:10:18",349042.000,"cc",28279.783,6.00,6,0.100,289588.000,0.200,51319.000,0.300,4621.000,0.500,2602.000,1.000,912.000,5.000,0
"03/11/08","07:10:24",302190.000,"cc",28279.248,6.00,6,0.100,264059.000,0.200,31119.000,0.300,3461.000,0.500,2629.000,1.000,922.000,5.000,0
"03/11/08","07:10:30",289419.000,"cc",28323.041,6.00,6,0.100,253676.000,0.200,29150.000,0.300,3293.000,0.500,2482.000,1.000,818.000,5.000,0
"03/11/08","07:10:36",277789.000,"cc",28304.707,6.00,6,0.100,220606.000,0.200,49573.000,0.300,4191.000,0.500,2529.000,1.000,890.000,5.000,0
"03/11/08","07:10:42",297820.000,"cc",28355.775,6.00,6,0.100,249660.000,0.200,41068.000,0.300,3814.000,0.500,2450.000,1.000,828.000,5.000,0
"03/11/08","07:10:48",357657.000,"cc",28319.166,6.00,6,0.100,311694.000,0.200,39114.000,0.300,3648.000,0.500,2361.000,1.000,840.000,5.000,0
"03/11/08","07:10:54",283115.000,"cc",28338.129,6.00,6,0.100,226633.000,0.200,48931.000,0.300,4190.000,0.500,2501.000,1.000,860.000,5.000,0
"03/11/08","07:11:00",235136.000,"cc",28251.297,6.00,6,0.100,151753.000,0.200,74295.000,0.300,5618.000,0.500,2596.000,1.000,874.000,5.000,0
"03/11/08","07:11:06",340851.000,"cc",28297.516,6.00,6,0.100,261366.000,0.200,70441.000,0.300,5568.000,0.500,2630.000,1.000,846.000,5.000,0
"03/11/08","07:11:12",312693.000,"cc",28372.690,6.00,6,0.100,274354.000,0.200,31758.000,0.300,3296.000,0.500,2444.000,1.000,841.000,5.000,0
"03/11/08","07:11:18",352169.000,"cc",28314.023,6.00,6,0.100,307791.000,0.200,37549.000,0.300,3471.000,0.500,2481.000,1.000,877.000,5.000,0
"03/11/08","07:11:24",297069.000,"cc",28313.844,6.00,6,0.100,250649.000,0.200,39425.000,0.300,3645.000,0.500,2472.000,1.000,878.000,5.000,0
"03/11/08","07:11:30",304939.000,"cc",28263.854,6.00,6,0.100,268588.000,0.200,30003.000,0.300,3117.000,0.500,2385.000,1.000,846.000,5.000,0
"03/11/08","07:11:36",370057.000,"cc",28352.334,6.00,6,0.100,323709.000,0.200,39539.000,0.300,3533.000,0.500,2453.000,1.000,823.000,5.000,0
"03/11/08","07:11:42",308047.000,"cc",28278.533,6.00,6,0.100,269845.000,0.200,31616.000,0.300,3271.000,0.500,2502.000,1.000,813.000,5.000,0
"03/11/08","07:11:48",190408.000,"cc",28354.600,6.00,6,0.100,101873.000,0.200,79748.000,0.300,5396.000,0.500,2533.000,1.000,858.000,5.000,0
"03/11/08","07:11:54",347465.000,"cc",28299.801,6.00,6,0.100,291524.000,0.200,48780.000,0.300,3758.000,0.500,2533.000,1.000,870.000,5.000,0
"03/11/08","07:12:00",300429.000,"cc",28348.375,6.00,6,0.100,254148.000,0.200,39084.000,0.300,3632.000,0.500,2618.000,1.000,947.000,5.000,0
"03/11/08","07:12:06",326428.000,"cc",28336.025,6.00,6,0.100,274147.000,0.200,45095.000,0.300,3751.000,0.500,2549.000,1.000,886.000,5.000,0
"03/11/08","07:12:12",376884.000,"cc",28318.598,6.00,6,0.100,327916.000,0.200,41890.000,0.300,3630.000,0.500,2576.000,1.000,872.000,5.000,0
"03/11/08","07:12:18",233116.000,"cc",28325.770,6.00,6,0.100,205301.000,0.200,21566.000,0.300,2851.000,0.500,2493.000,1.000,905.000,5.000,0
"03/11/08","07:12:24",252264.000,"cc",28303.779,6.00,6,0.100,222232.000,0.200,23899.000,0.300,2801.000,0.500,2486.000,1.000,846.000,5.000,0
"03/11/08","07:12:30",293187.000,"cc",28318.715,6.00,6,0.100,235302.000,0.200,50501.000,0.300,3871.000,0.500,2608.000,1.000,905.000,5.000,0
"03/11/08","07:12:36",281600.000,"cc",28374.281,6.00,6,0.100,248576.000,0.200,26614.000,0.300,2980.000,0.500,2554.000,1.000,876.000,5.000,0
"03/11/08","07:12:42",280601.000,"cc",28353.383,6.00,6,0.100,247268.000,0.200,26725.000,0.300,3088.000,0.500,2566.000,1.000,954.000,5.000,0
"03/11/08","07:12:48",211979.000,"cc",28254.400,6.00,6,0.100,185938.000,0.200,19709.000,0.300,2820.000,0.500,2573.000,1.000,939.000,5.000,0
"03/11/08","07:12:54",232050.000,"cc",28267.516,6.00,6,0.100,203701.000,0.200,21676.000,0.300,3069.000,0.500,2689.000,1.000,915.000,5.000,0
"03/11/08","07:13:00",176782.000,"cc",28315.690,6.00,6,0.100,154749.000,0.200,15926.000,0.300,2654.000,0.500,2589.000,1.000,864.000,5.000,0
"03/11/08","07:13:06",251063.000,"cc",28295.561,6.00,6,0.100,220173.000,0.200,24557.000,0.300,2948.000,0.500,2491.000,1.000,894.000,5.000,0
"03/11/08","07:13:12",293285.000,"cc",28347.986,6.00,6,0.100,257510.000,0.200,29233.000,0.300,3160.000,0.500,2517.000,1.000,865.000,5.000,0
"03/11/08","07:13:18",218827.000,"cc",28377.215,6.00,6,0.100,161720.000,0.200,49457.000,0.300,4070.000,0.500,2637.000,1.000,943.000,5.000,0
"03/11/08","07:13:24",218650.000,"cc",28302.164,6.00,6,0.100,182017.000,0.200,29718.000,0.300,3345.000,0.500,2623.000,1.000,946.000,5.000,1.000
"03/11/08","07:13:30",180845.000,"cc",28220.053,6.00,6,0.100,81254.000,0.200,89518.000,0.300,6395.000,0.500,2794.000,1.000,884.000,5.000,0
"03/11/08","07:13:36",409242.000,"cc",28272.832,6.00,6,0.100,255682.000,0.200,138093.000,0.300,11778.000,0.500,2816.000,1.000,873.000,5.000,0
"03/11/08","07:13:42",218625.000,"cc",28302.500,6.00,6,0.100,139892.000,0.200,69919.000,0.300,5328.000,0.500,2622.000,1.000,864.000,5.000,0
"03/11/08","07:13:48",354055.000,"cc",28314.486,6.00,6,0.100,308484.000,0.200,38297.000,0.300,3704.000,0.500,2656.000,1.000,914.000,5.000,0
"03/11/08","07:13:54",343505.000,"cc",28350.586,6.00,6,0.100,300530.000,0.200,36065.000,0.300,3467.000,0.500,2538.000,1.000,905.000,5.000,0
"03/11/08","07:14:00",200412.000,"cc",28288.998,6.00,6,0.100,98994.000,0.200,91076.000,0.300,6772.000,0.500,2685.000,1.000,885.000,5.000,0
"03/11/08","07:14:06",497059.000,"cc",28304.604,6.00,6,0.100,346339.000,0.200,135292.000,0.300,11472.000,0.500,3053.000,1.000,903.000,5.000,0
"03/11/08","07:14:12",196245.000,"cc",28317.641,6.00,6,0.100,83874.000,0.200,101061.000,0.300,7618.000,0.500,2789.000,1.000,903.000,5.000,0
"03/11/08","07:14:18",363299.000,"cc",28285.680,6.00,6,0.100,314853.000,0.200,41116.000,0.300,3856.000,0.500,2581.000,1.000,893.000,5.000,0
"03/11/08","07:14:24",280312.000,"cc",28260.287,6.00,6,0.100,222415.000,0.200,50148.000,0.300,4207.000,0.500,2610.000,1.000,932.000,5.000,0
"03/11/08","07:14:30",368958.000,"cc",28393.041,6.00,6,0.100,309133.000,0.200,52065.000,0.300,4312.000,0.500,2598.000,1.000,850.000,5.000,0
"03/11/08","07:14:36",283119.000,"cc",28348.315,6.00,6,0.100,226195.000,0.200,49329.000,0.300,4126.000,0.500,2590.000,1.000,879.000,5.000,0
"03/11/08","07:14:42",223978.000,"cc",28334.981,6.00,6,0.100,197086.000,0.200,20814.000,0.300,2772.000,0.500,2473.000,1.000,833.000,5.000,0
"03/11/08","07:14:48",218608.000,"cc",28296.715,6.00,6,0.100,192495.000,0.200,20104.000,0.300,2682.000,0.500,2445.000,1.000,882.000,5.000,0
"03/11/08","07:14:54",256480.000,"cc",28272.506,6.00,6,0.100,225830.000,0.200,24303.000,0.300,2965.000,0.500,2547.000,1.000,835.000,5.000,0
"03/11/08","07:15:00",287963.000,"cc",28309.176,6.00,6,0.100,253998.000,0.200,27593.000,0.300,3028.000,0.500,2495.000,1.000,849.000,5.000,0
"03/11/08","07:15:06",321089.000,"cc",28329.213,6.00,6,0.100,283049.000,0.200,31523.000,0.300,3091.000,0.500,2541.000,1.000,885.000,5.000,0
"03/11/08","07:15:12",226494.000,"cc",28306.191,6.00,6,0.100,167571.000,0.200,51553.000,0.300,4022.000,0.500,2476.000,1.000,872.000,5.000,0
"03/11/08","07:15:18",238586.000,"cc",28295.104,6.00,6,0.100,210344.000,0.200,22004.000,0.300,2795.000,0.500,2527.000,1.000,916.000,5.000,0
"03/11/08","07:15:24",340430.000,"cc",28310.262,6.00,6,0.100,298042.000,0.200,35537.000,0.300,3440.000,0.500,2532.000,1.000,879.000,5.000,0
"03/11/08","07:15:30",260732.000,"cc",28368.260,6.00,6,0.100,229568.000,0.200,24746.000,0.300,3046.000,0.500,2475.000,1.000,897.000,5.000,0
"03/11/08","07:15:36",193385.000,"cc",28310.400,6.00,6,0.100,169432.000,0.200,17687.000,0.300,2716.000,0.500,2646.000,1.000,904.000,5.000,0
"03/11/08","07:15:42",242859.000,"cc",28266.891,6.00,6,0.100,213428.000,0.200,23159.000,0.300,2878.000,0.500,2499.000,1.000,895.000,5.000,0
"03/11/08","07:15:48",309348.000,"cc",28302.887,6.00,6,0.100,271905.000,0.200,30877.000,0.300,3141.000,0.500,2619.000,1.000,806.000,5.000,0
"03/11/08","07:15:54",315246.000,"cc",28298.043,6.00,6,0.100,264171.000,0.200,43968.000,0.300,3691.000,0.500,2531.000,1.000,885.000,5.000,0
"03/11/08","07:16:00",244412.000,"cc",28338.647,6.00,6,0.100,215653.000,0.200,22612.000,0.300,2803.000,0.500,2493.000,1.000,851.000,5.000,0